When you browse on this site, cookies collect data to enhance your experience and personalize the content and advertising you see.
Visit our Privacy Policy to learn more. By continuing to use the site, you agree to this use of cookies and data.
  • In Portugal
  • List of Countries
  • For 7 days
  • Water Temperature
  • Satellite Maps
  • Weather Map
  • Weather Widgets
  • user-avatar
    Login

    Hourly Weather Podwysokie

    Today, 26 March, Tuesday

    Time Temperature Precipitation Wind Pressure Humidity
    00:00 -1°C° 0 mm 5 mps 742 mmHg 85%
    01:00 -1°C° 0 mm 5 mps 743 mmHg 84%
    02:00 -2°C° 0 mm 4 mps 743 mmHg 83%
    03:00 -2°C° 0 mm 4 mps 743 mmHg 82%
    04:00 -3°C° 0 mm 4 mps 743 mmHg 82%
    05:00 -2°C° 0 mm 3 mps 743 mmHg 82%
    06:00 -2°C° 0 mm 3 mps 743 mmHg 78%
    07:00 -2°C° 0 mm 4 mps 743 mmHg 75%
    08:00 -1°C° 0 mm 4 mps 743 mmHg 68%
    09:00 0°C° 0 mm 4 mps 743 mmHg 62%
    10:00 +1°C° 0 mm 5 mps 742 mmHg 56%
    11:00 +2°C° 0 mm 6 mps 742 mmHg 50%
    12:00 +2°C° 0.7 mm 6 mps 741 mmHg 59%
    13:00 +2°C° 0.7 mm 7 mps 740 mmHg 67%
    14:00 0°C° 0.7 mm 7 mps 739 mmHg 75%
    15:00 0°C° 0.7 mm 7 mps 739 mmHg 75%
    16:00 -1°C° 0.7 mm 7 mps 739 mmHg 76%
    17:00 -1°C° 0.7 mm 7 mps 739 mmHg 77%
    18:00 -1°C° 0.1 mm 7 mps 740 mmHg 79%
    19:00 -2°C° 0.1 mm 7 mps 740 mmHg 81%
    20:00 -2°C° 0.1 mm 7 mps 741 mmHg 83%
    21:00 -2°C° 0 mm 7 mps 742 mmHg 83%
    22:00 -2°C° 0 mm 6 mps 743 mmHg 82%
    23:00 -3°C° 0 mm 6 mps 744 mmHg 82%

    Tomorrow, 27 March, Wednesday

    Time Temperature Precipitation Wind Pressure Humidity
    00:00 -4°C° 0 mm 6 mps 745 mmHg 81%
    01:00 -4°C° 0 mm 5 mps 746 mmHg 81%
    02:00 -5°C° 0 mm 5 mps 747 mmHg 80%
    03:00 -5°C° 0 mm 4 mps 747 mmHg 82%
    04:00 -5°C° 0 mm 4 mps 748 mmHg 83%
    05:00 -6°C° 0 mm 3 mps 749 mmHg 85%
    06:00 -5°C° 0 mm 3 mps 749 mmHg 81%
    07:00 -4°C° 0 mm 3 mps 750 mmHg 77%
    08:00 -2°C° 0 mm 3 mps 750 mmHg 73%
    09:00 -1°C° 0 mm 3 mps 751 mmHg 70%
    10:00 +1°C° 0 mm 3 mps 751 mmHg 66%
    11:00 +2°C° 0 mm 3 mps 751 mmHg 63%
    12:00 +3°C° 0 mm 3 mps 751 mmHg 62%
    13:00 +3°C° 0 mm 3 mps 751 mmHg 61%
    14:00 +4°C° 0 mm 3 mps 751 mmHg 60%
    15:00 +4°C° 0 mm 3 mps 751 mmHg 61%
    16:00 +4°C° 0 mm 3 mps 751 mmHg 61%
    17:00 +5°C° 0 mm 2 mps 751 mmHg 61%
    18:00 +4°C° 0.1 mm 2 mps 751 mmHg 66%
    19:00 +4°C° 0.1 mm 1 mps 751 mmHg 71%
    20:00 +3°C° 0.1 mm 1 mps 751 mmHg 77%
    21:00 +3°C° 0.2 mm 1 mps 752 mmHg 78%
    22:00 +3°C° 0.2 mm 1 mps 752 mmHg 79%
    23:00 +3°C° 0.2 mm 1 mps 752 mmHg 81%

    Day after tomorrow, 28 March, Thursday

    Time Temperature Precipitation Wind Pressure Humidity
    00:00 +3°C° 0 mm 1 mps 752 mmHg 82%
    01:00 +3°C° 0 mm 1 mps 752 mmHg 83%
    02:00 +3°C° 0 mm 1 mps 752 mmHg 84%
    03:00 +3°C° 0 mm 1 mps 752 mmHg 85%
    04:00 +2°C° 0 mm 1 mps 752 mmHg 86%
    05:00 +2°C° 0 mm 1 mps 753 mmHg 86%
    06:00 +2°C° 0 mm 1 mps 753 mmHg 85%
    07:00 +3°C° 0 mm 1 mps 753 mmHg 84%
    08:00 +3°C° 0 mm 1 mps 754 mmHg 83%
    09:00 +5°C° 0 mm 1 mps 754 mmHg 78%
    10:00 +6°C° 0 mm 1 mps 754 mmHg 73%
    11:00 +8°C° 0 mm 1 mps 755 mmHg 69%
    12:00 +8°C° 0 mm 1 mps 755 mmHg 68%
    13:00 +9°C° 0 mm 1 mps 755 mmHg 67%
    14:00 +8°C° 0 mm 2 mps 755 mmHg 66%
    15:00 +8°C° 0 mm 2 mps 755 mmHg 67%
    16:00 +8°C° 0 mm 2 mps 755 mmHg 68%
    17:00 +8°C° 0 mm 2 mps 755 mmHg 69%
    18:00 +7°C° 0 mm 2 mps 755 mmHg 75%
    19:00 +5°C° 0 mm 2 mps 756 mmHg 82%
    20:00 +4°C° 0 mm 2 mps 756 mmHg 88%
    21:00 +4°C° 0 mm 2 mps 756 mmHg 89%
    22:00 +3°C° 0 mm 2 mps 756 mmHg 91%
    23:00 +3°C° 0 mm 2 mps 756 mmHg 92%

    29 March, Friday

    Time Temperature Precipitation Wind Pressure Humidity
    00:00 +3°C° 0 mm 2 mps 756 mmHg 92%
    01:00 +2°C° 0 mm 2 mps 756 mmHg 93%
    02:00 +2°C° 0 mm 2 mps 756 mmHg 93%
    03:00 +1°C° 0 mm 3 mps 756 mmHg 93%
    04:00 +1°C° 0 mm 3 mps 756 mmHg 93%
    05:00 +1°C° 0 mm 3 mps 755 mmHg 92%
    06:00 +2°C° 0 mm 3 mps 755 mmHg 90%
    07:00 +3°C° 0 mm 4 mps 755 mmHg 88%
    08:00 +4°C° 0 mm 4 mps 755 mmHg 86%
    09:00 +5°C° 0 mm 4 mps 755 mmHg 83%
    10:00 +7°C° 0 mm 4 mps 755 mmHg 80%
    11:00 +8°C° 0 mm 4 mps 755 mmHg 77%
    12:00 +8°C° 0 mm 5 mps 755 mmHg 77%
    13:00 +9°C° 0 mm 5 mps 754 mmHg 77%
    14:00 +9°C° 0 mm 5 mps 754 mmHg 77%
    15:00 +9°C° 0 mm 5 mps 754 mmHg 76%
    16:00 +10°C° 0 mm 5 mps 754 mmHg 74%
    17:00 +10°C° 0 mm 5 mps 753 mmHg 73%
    18:00 +9°C° 0 mm 5 mps 753 mmHg 78%
    19:00 +7°C° 0 mm 4 mps 753 mmHg 83%
    20:00 +6°C° 0 mm 4 mps 753 mmHg 88%
    21:00 +6°C° 0 mm 4 mps 753 mmHg 88%
    22:00 +6°C° 0 mm 4 mps 753 mmHg 88%
    23:00 +5°C° 0 mm 4 mps 753 mmHg 88%

    30 March, Saturday

    Time Temperature Precipitation Wind Pressure Humidity
    00:00 +5°C° 0 mm 4 mps 753 mmHg 88%
    01:00 +5°C° 0 mm 4 mps 753 mmHg 88%
    02:00 +4°C° 0 mm 4 mps 753 mmHg 88%
    03:00 +4°C° 0 mm 4 mps 752 mmHg 89%
    04:00 +3°C° 0 mm 4 mps 752 mmHg 90%
    05:00 +3°C° 0 mm 4 mps 752 mmHg 91%
    06:00 +4°C° 0 mm 4 mps 752 mmHg 88%
    07:00 +5°C° 0 mm 4 mps 752 mmHg 85%
    08:00 +5°C° 0 mm 5 mps 752 mmHg 83%
    09:00 +7°C° 0 mm 5 mps 752 mmHg 76%
    10:00 +9°C° 0 mm 5 mps 752 mmHg 69%
    11:00 +10°C° 0 mm 5 mps 751 mmHg 63%
    12:00 +12°C° 0 mm 5 mps 751 mmHg 60%
    13:00 +13°C° 0 mm 5 mps 751 mmHg 57%
    14:00 +14°C° 0 mm 5 mps 750 mmHg 54%
    15:00 +14°C° 0 mm 5 mps 750 mmHg 56%
    16:00 +14°C° 0 mm 5 mps 749 mmHg 58%
    17:00 +14°C° 0 mm 4 mps 749 mmHg 59%
    18:00 +13°C° 0 mm 4 mps 749 mmHg 65%
    19:00 +12°C° 0 mm 3 mps 749 mmHg 71%
    20:00 +12°C° 0 mm 2 mps 749 mmHg 77%
    21:00 +10°C° 0 mm 2 mps 748 mmHg 79%
    22:00 +10°C° 0 mm 2 mps 748 mmHg 81%
    23:00 +10°C° 0 mm 2 mps 748 mmHg 83%

    31 March, Sunday

    Time Temperature Precipitation Wind Pressure Humidity
    00:00 +9°C° 0 mm 2 mps 748 mmHg 85%
    01:00 +9°C° 0 mm 2 mps 747 mmHg 87%
    02:00 +8°C° 0 mm 2 mps 747 mmHg 89%
    03:00 +8°C° 0 mm 2 mps 747 mmHg 90%
    04:00 +8°C° 0 mm 2 mps 746 mmHg 91%
    05:00 +7°C° 0 mm 2 mps 746 mmHg 92%
    06:00 +7°C° 0.1 mm 2 mps 746 mmHg 91%
    07:00 +8°C° 0.1 mm 2 mps 746 mmHg 89%
    08:00 +8°C° 0.1 mm 2 mps 746 mmHg 88%
    09:00 +8°C° 0.3 mm 2 mps 746 mmHg 87%
    10:00 +8°C° 0.3 mm 2 mps 746 mmHg 86%
    11:00 +8°C° 0.3 mm 2 mps 746 mmHg 85%
    12:00 +9°C° 0.1 mm 2 mps 746 mmHg 80%
    13:00 +10°C° 0.1 mm 2 mps 746 mmHg 75%
    14:00 +10°C° 0.1 mm 3 mps 746 mmHg 69%
    15:00 +9°C° 0.5 mm 3 mps 746 mmHg 71%
    16:00 +7°C° 0.5 mm 4 mps 746 mmHg 73%
    17:00 +6°C° 0.5 mm 5 mps 746 mmHg 75%
    18:00 +5°C° 0.2 mm 5 mps 747 mmHg 77%
    19:00 +5°C° 0.2 mm 5 mps 747 mmHg 79%
    20:00 +3°C° 0.2 mm 5 mps 748 mmHg 81%
    21:00 +2°C° 0.1 mm 5 mps 748 mmHg 76%
    22:00 +2°C° 0.1 mm 5 mps 749 mmHg 70%
    23:00 +1°C° 0.1 mm 5 mps 749 mmHg 65%
    Show more